Time,TemperatureF,DewpointF,PressureIn,WindDirection,WindDirectionDegrees,WindSpeedMPH,WindSpeedGustMPH,Humidity,HourlyPrecipIn,Conditions,Clouds,dailyrainin,SolarRadiationWatts/m^2,SoftwareType,DateUTC
2013-01-15 00:02:00,33.1,30.8,30.57,SE,134,2.0,4.0,91,0.00,,,0.00,0,Wunderground v.1.15,2013-01-15 08:02:00,
2013-01-15 00:08:00,33.2,30.9,30.57,SE,134,1.0,4.0,91,0.00,,,0.00,0,Wunderground v.1.15,2013-01-15 08:08:00,
2013-01-15 00:14:00,33.2,30.9,30.58,SE,134,0.0,1.0,91,0.00,,,0.00,0,Wunderground v.1.15,2013-01-15 08:14:00,
2013-01-15 00:20:00,33.3,30.7,30.58,SE,134,0.0,1.0,90,0.00,,,0.00,0,Wunderground v.1.15,2013-01-15 08:20:00,
2013-01-15 00:25:00,33.2,30.6,30.58,SE,134,0.0,0.0,90,0.00,,,0.00,0,Wunderground v.1.15,2013-01-15 08:25:00,
2013-01-15 00:30:00,33.1,30.8,30.58,SE,134,0.0,0.0,91,0.00,,,0.00,0,Wunderground v.1.15,2013-01-15 08:30:00,
2013-01-15 00:35:00,33.0,30.7,30.58,SE,134,0.0,0.0,91,0.00,,,0.00,0,Wunderground v.1.15,2013-01-15 08:35:00,
2013-01-15 00:40:00,32.9,30.6,30.58,SE,134,0.0,0.0,91,0.00,,,0.00,0,Wunderground v.1.15,2013-01-15 08:40:00,
2013-01-15 00:45:00,32.8,30.5,30.58,SE,134,0.0,1.0,91,0.00,,,0.00,0,Wunderground v.1.15,2013-01-15 08:45:00,
2013-01-15 00:50:00,32.7,30.6,30.58,SE,134,0.0,2.0,92,0.00,,,0.00,0,Wunderground v.1.15,2013-01-15 08:50:00,
2013-01-15 00:56:00,32.8,30.7,30.58,SE,134,0.0,2.0,92,0.00,,,0.00,0,Wunderground v.1.15,2013-01-15 08:56:00,
2013-01-15 01:01:00,32.9,30.8,30.58,SE,134,0.0,2.0,92,0.00,,,0.00,0,Wunderground v.1.15,2013-01-15 09:01:00,
2013-01-15 01:06:00,32.9,30.8,30.59,SE,134,0.0,2.0,92,0.00,,,0.00,0,Wunderground v.1.15,2013-01-15 09:06:00,
2013-01-15 01:11:00,32.9,30.8,30.59,SE,134,0.0,0.0,92,0.00,,,0.00,0,Wunderground v.1.15,2013-01-15 09:11:00,
2013-01-15 01:16:00,32.9,30.8,30.60,SE,134,0.0,0.0,92,0.00,,,0.00,0,Wunderground v.1.15,2013-01-15 09:16:00,
2013-01-15 01:21:00,32.9,30.8,30.60,SE,134,0.0,0.0,92,0.00,,,0.00,0,Wunderground v.1.15,2013-01-15 09:21:00,
2013-01-15 01:27:00,32.7,30.6,30.60,SE,134,0.0,0.0,92,0.00,,,0.00,0,Wunderground v.1.15,2013-01-15 09:27:00,
2013-01-15 01:32:00,32.7,30.6,30.60,SE,134,0.0,0.0,92,0.00,,,0.00,0,Wunderground v.1.15,2013-01-15 09:32:00,
2013-01-15 01:37:00,32.7,30.6,30.60,SE,134,0.0,4.0,92,0.00,,,0.00,0,Wunderground v.1.15,2013-01-15 09:37:00,
2013-01-15 01:42:00,32.6,30.5,30.60,SE,134,1.0,1.0,92,0.00,,,0.00,0,Wunderground v.1.15,2013-01-15 09:42:00,
2013-01-15 01:47:00,32.6,30.5,30.60,SE,134,0.0,1.0,92,0.00,,,0.00,0,Wunderground v.1.15,2013-01-15 09:47:00,
2013-01-15 01:53:00,32.8,30.7,30.60,SE,134,0.0,2.0,92,0.00,,,0.00,0,Wunderground v.1.15,2013-01-15 09:53:00,
2013-01-15 01:59:00,32.9,30.8,30.60,SE,134,0.0,2.0,92,0.00,,,0.00,0,Wunderground v.1.15,2013-01-15 09:59:00,
2013-01-15 02:04:00,32.9,30.8,30.60,SE,134,0.0,0.0,92,0.00,,,0.00,0,Wunderground v.1.15,2013-01-15 10:04:00,
2013-01-15 02:10:00,32.8,30.7,30.61,SE,134,0.0,0.0,92,0.00,,,0.00,0,Wunderground v.1.15,2013-01-15 10:10:00,
2013-01-15 02:15:00,32.7,30.6,30.61,SE,134,0.0,0.0,92,0.00,,,0.00,0,Wunderground v.1.15,2013-01-15 10:15:00,
2013-01-15 02:20:00,32.6,30.5,30.61,SE,134,0.0,0.0,92,0.00,,,0.00,0,Wunderground v.1.15,2013-01-15 10:20:00,
2013-01-15 02:26:00,32.6,30.8,30.61,SE,134,0.0,0.0,93,0.00,,,0.00,0,Wunderground v.1.15,2013-01-15 10:26:00,
2013-01-15 02:31:00,32.6,30.8,30.62,SE,134,0.0,0.0,93,0.00,,,0.00,0,Wunderground v.1.15,2013-01-15 10:31:00,
2013-01-15 02:37:00,32.5,30.7,30.62,SE,134,0.0,0.0,93,0.00,,,0.00,0,Wunderground v.1.15,2013-01-15 10:37:00,
2013-01-15 02:42:00,32.5,30.7,30.62,SE,134,0.0,2.0,93,0.00,,,0.00,0,Wunderground v.1.15,2013-01-15 10:42:00,
2013-01-15 02:47:00,32.6,30.8,30.62,SE,134,1.0,4.0,93,0.00,,,0.00,0,Wunderground v.1.15,2013-01-15 10:47:00,
2013-01-15 02:53:00,32.8,31.0,30.62,SE,134,2.0,4.0,93,0.00,,,0.00,0,Wunderground v.1.15,2013-01-15 10:53:00,
2013-01-15 02:58:00,32.8,31.0,30.62,SE,134,2.0,4.0,93,0.00,,,0.00,0,Wunderground v.1.15,2013-01-15 10:58:00,
2013-01-15 03:03:00,32.9,31.1,30.62,SE,134,2.0,2.0,93,0.00,,,0.00,0,Wunderground v.1.15,2013-01-15 11:03:00,
2013-01-15 03:08:00,33.0,31.2,30.62,SE,134,1.0,2.0,93,0.00,,,0.00,0,Wunderground v.1.15,2013-01-15 11:08:00,
2013-01-15 03:13:00,33.0,31.2,30.62,SE,134,0.0,0.0,93,0.00,,,0.00,0,Wunderground v.1.15,2013-01-15 11:13:00,
2013-01-15 03:18:00,32.9,31.1,30.62,SE,134,0.0,0.0,93,0.00,,,0.00,0,Wunderground v.1.15,2013-01-15 11:18:00,
2013-01-15 03:24:00,32.9,31.1,30.62,SE,134,0.0,0.0,93,0.00,,,0.00,0,Wunderground v.1.15,2013-01-15 11:24:00,
2013-01-15 03:29:00,32.8,31.0,30.62,SE,134,0.0,0.0,93,0.00,,,0.00,0,Wunderground v.1.15,2013-01-15 11:29:00,
2013-01-15 03:34:00,32.8,31.0,30.62,SE,134,0.0,0.0,93,0.00,,,0.00,0,Wunderground v.1.15,2013-01-15 11:34:00,
2013-01-15 03:39:00,32.7,30.9,30.62,SE,134,0.0,0.0,93,0.00,,,0.00,0,Wunderground v.1.15,2013-01-15 11:39:00,
2013-01-15 03:45:00,32.6,30.8,30.62,SE,134,0.0,1.0,93,0.00,,,0.00,0,Wunderground v.1.15,2013-01-15 11:45:00,
2013-01-15 03:50:00,32.5,30.7,30.62,SE,134,0.0,0.0,93,0.00,,,0.00,0,Wunderground v.1.15,2013-01-15 11:50:00,
2013-01-15 03:55:00,32.5,30.7,30.62,SE,134,0.0,0.0,93,0.00,,,0.00,0,Wunderground v.1.15,2013-01-15 11:55:00,
2013-01-15 04:00:00,32.4,30.6,30.62,SE,134,0.0,0.0,93,0.00,,,0.00,0,Wunderground v.1.15,2013-01-15 12:00:00,
2013-01-15 04:06:00,32.4,30.6,30.62,SE,134,0.0,1.0,93,0.00,,,0.00,0,Wunderground v.1.15,2013-01-15 12:06:00,
2013-01-15 04:12:00,32.4,30.9,30.62,SE,134,1.0,2.0,94,0.00,,,0.00,0,Wunderground v.1.15,2013-01-15 12:12:00,
2013-01-15 04:17:00,32.5,30.7,30.62,SE,134,0.0,2.0,93,0.00,,,0.00,0,Wunderground v.1.15,2013-01-15 12:17:00,
2013-01-15 04:22:00,32.6,30.8,30.62,SE,134,1.0,4.0,93,0.00,,,0.00,0,Wunderground v.1.15,2013-01-15 12:22:00,
2013-01-15 04:27:00,32.8,31.0,30.62,SE,134,1.0,4.0,93,0.00,,,0.00,0,Wunderground v.1.15,2013-01-15 12:27:00,
2013-01-15 04:32:00,32.9,31.1,30.62,SE,134,1.0,2.0,93,0.00,,,0.00,0,Wunderground v.1.15,2013-01-15 12:32:00,
2013-01-15 04:37:00,32.9,30.8,30.62,SE,134,1.0,2.0,92,0.00,,,0.00,0,Wunderground v.1.15,2013-01-15 12:37:00,
2013-01-15 04:42:00,33.0,30.9,30.62,SE,134,1.0,4.0,92,0.00,,,0.00,0,Wunderground v.1.15,2013-01-15 12:42:00,
2013-01-15 04:47:00,33.0,31.2,30.62,SE,134,1.0,4.0,93,0.00,,,0.00,0,Wunderground v.1.15,2013-01-15 12:47:00,
2013-01-15 04:52:00,33.2,31.1,30.62,SE,134,1.0,2.0,92,0.00,,,0.00,0,Wunderground v.1.15,2013-01-15 12:52:00,
2013-01-15 04:57:00,33.2,31.1,30.62,SE,134,1.0,4.0,92,0.00,,,0.00,0,Wunderground v.1.15,2013-01-15 12:57:00,
2013-01-15 05:02:00,33.1,31.0,30.62,SE,134,1.0,1.0,92,0.00,,,0.00,0,Wunderground v.1.15,2013-01-15 13:02:00,
2013-01-15 05:07:00,33.2,31.1,30.62,SE,134,0.0,1.0,92,0.00,,,0.00,0,Wunderground v.1.15,2013-01-15 13:07:00,
2013-01-15 05:13:00,33.1,31.0,30.62,SE,134,0.0,0.0,92,0.00,,,0.00,0,Wunderground v.1.15,2013-01-15 13:13:00,
2013-01-15 05:18:00,33.0,30.9,30.62,SE,134,0.0,1.0,92,0.00,,,0.00,0,Wunderground v.1.15,2013-01-15 13:18:00,
2013-01-15 05:23:00,32.9,30.8,30.62,SE,134,0.0,0.0,92,0.00,,,0.00,0,Wunderground v.1.15,2013-01-15 13:23:00,
2013-01-15 05:28:00,32.9,30.8,30.62,SE,134,0.0,0.0,92,0.00,,,0.00,0,Wunderground v.1.15,2013-01-15 13:28:00,
2013-01-15 05:34:00,32.8,30.7,30.62,SE,134,0.0,0.0,92,0.00,,,0.00,0,Wunderground v.1.15,2013-01-15 13:34:00,
2013-01-15 05:40:00,32.7,30.6,30.62,SE,134,0.0,0.0,92,0.00,,,0.00,0,Wunderground v.1.15,2013-01-15 13:40:00,
2013-01-15 05:45:00,32.7,30.6,30.62,SE,134,0.0,0.0,92,0.00,,,0.00,0,Wunderground v.1.15,2013-01-15 13:45:00,
2013-01-15 05:50:00,32.6,30.5,30.63,SE,134,0.0,0.0,92,0.00,,,0.00,0,Wunderground v.1.15,2013-01-15 13:50:00,
2013-01-15 05:56:00,32.5,30.7,30.63,SE,134,0.0,0.0,93,0.00,,,0.00,0,Wunderground v.1.15,2013-01-15 13:56:00,
2013-01-15 06:01:00,32.5,30.7,30.63,SE,134,0.0,0.0,93,0.00,,,0.00,0,Wunderground v.1.15,2013-01-15 14:01:00,
2013-01-15 06:06:00,32.5,30.7,30.63,SE,134,0.0,0.0,93,0.00,,,0.00,0,Wunderground v.1.15,2013-01-15 14:06:00,
2013-01-15 06:11:00,32.4,30.6,30.63,SE,134,0.0,0.0,93,0.00,,,0.00,0,Wunderground v.1.15,2013-01-15 14:11:00,
2013-01-15 06:16:00,32.4,30.6,30.63,SE,134,0.0,0.0,93,0.00,,,0.00,0,Wunderground v.1.15,2013-01-15 14:16:00,
2013-01-15 06:21:00,32.3,30.5,30.63,SE,134,0.0,0.0,93,0.00,,,0.00,0,Wunderground v.1.15,2013-01-15 14:21:00,
2013-01-15 06:26:00,32.3,30.5,30.64,SE,134,0.0,0.0,93,0.00,,,0.00,0,Wunderground v.1.15,2013-01-15 14:26:00,
2013-01-15 06:31:00,32.2,30.4,30.64,SE,134,0.0,0.0,93,0.00,,,0.00,0,Wunderground v.1.15,2013-01-15 14:31:00,
2013-01-15 06:36:00,32.1,30.3,30.64,SE,134,0.0,0.0,93,0.00,,,0.00,0,Wunderground v.1.15,2013-01-15 14:36:00,
2013-01-15 06:41:00,31.9,30.1,30.64,SE,134,0.0,0.0,93,0.00,,,0.00,0,Wunderground v.1.15,2013-01-15 14:41:00,
2013-01-15 06:47:00,31.8,30.3,30.64,SE,134,0.0,1.0,94,0.00,,,0.00,0,Wunderground v.1.15,2013-01-15 14:47:00,
2013-01-15 06:52:00,31.8,30.3,30.64,SE,134,1.0,2.0,94,0.00,,,0.00,0,Wunderground v.1.15,2013-01-15 14:52:00,
2013-01-15 06:57:00,31.8,30.3,30.64,SE,134,1.0,2.0,94,0.00,,,0.00,0,Wunderground v.1.15,2013-01-15 14:57:00,
2013-01-15 07:03:00,31.8,30.3,30.64,SE,134,1.0,2.0,94,0.00,,,0.00,0,Wunderground v.1.15,2013-01-15 15:03:00,
2013-01-15 07:09:00,31.9,30.4,30.65,SE,134,1.0,2.0,94,0.00,,,0.00,0,Wunderground v.1.15,2013-01-15 15:09:00,
2013-01-15 07:14:00,32.0,30.5,30.65,SE,134,1.0,2.0,94,0.00,,,0.00,0,Wunderground v.1.15,2013-01-15 15:14:00,
2013-01-15 07:20:00,32.0,30.5,30.65,SE,134,0.0,0.0,94,0.00,,,0.00,0,Wunderground v.1.15,2013-01-15 15:20:00,
2013-01-15 07:25:00,32.1,30.6,30.65,SE,134,0.0,2.0,94,0.00,,,0.00,0,Wunderground v.1.15,2013-01-15 15:25:00,
2013-01-15 07:30:00,32.2,30.4,30.66,SE,134,1.0,1.0,93,0.00,,,0.00,0,Wunderground v.1.15,2013-01-15 15:30:00,
2013-01-15 07:36:00,32.2,30.4,30.66,SE,134,1.0,2.0,93,0.00,,,0.00,0,Wunderground v.1.15,2013-01-15 15:36:00,
2013-01-15 07:41:00,32.1,30.3,30.66,SE,134,0.0,0.0,93,0.00,,,0.00,0,Wunderground v.1.15,2013-01-15 15:41:00,
2013-01-15 07:46:00,32.0,30.2,30.67,SE,134,0.0,0.0,93,0.00,,,0.00,0,Wunderground v.1.15,2013-01-15 15:46:00,
2013-01-15 07:51:00,31.9,30.4,30.67,SE,134,0.0,0.0,94,0.00,,,0.00,0,Wunderground v.1.15,2013-01-15 15:51:00,
2013-01-15 07:56:00,31.8,30.3,30.67,SE,134,0.0,0.0,94,0.00,,,0.00,0,Wunderground v.1.15,2013-01-15 15:56:00,
2013-01-15 08:01:00,31.8,30.3,30.67,SE,134,0.0,0.0,94,0.00,,,0.00,0,Wunderground v.1.15,2013-01-15 16:01:00,
2013-01-15 08:06:00,31.8,30.3,30.67,SE,134,0.0,0.0,94,0.00,,,0.00,0,Wunderground v.1.15,2013-01-15 16:06:00,
2013-01-15 08:11:00,31.8,30.3,30.67,SE,134,0.0,0.0,94,0.00,,,0.00,5,Wunderground v.1.15,2013-01-15 16:11:00,
2013-01-15 08:16:00,31.8,30.3,30.68,SE,134,0.0,0.0,94,0.00,,,0.00,5,Wunderground v.1.15,2013-01-15 16:16:00,
2013-01-15 08:21:00,31.7,30.2,30.68,SE,134,0.0,0.0,94,0.00,,,0.00,9,Wunderground v.1.15,2013-01-15 16:21:00,
2013-01-15 08:26:00,31.7,30.2,30.68,SE,134,0.0,0.0,94,0.00,,,0.00,16,Wunderground v.1.15,2013-01-15 16:26:00,
2013-01-15 08:31:00,31.8,30.3,30.68,SE,134,0.0,0.0,94,0.00,,,0.00,19,Wunderground v.1.15,2013-01-15 16:31:00,
2013-01-15 08:37:00,31.9,30.4,30.68,SE,134,0.0,0.0,94,0.00,,,0.00,18,Wunderground v.1.15,2013-01-15 16:37:00,
2013-01-15 08:42:00,31.9,30.4,30.68,SE,134,0.0,0.0,94,0.00,,,0.00,19,Wunderground v.1.15,2013-01-15 16:42:00,
2013-01-15 08:47:00,32.0,30.5,30.68,SE,134,0.0,1.0,94,0.00,,,0.00,25,Wunderground v.1.15,2013-01-15 16:47:00,
2013-01-15 08:52:00,32.2,30.7,30.69,SE,134,0.0,0.0,94,0.00,,,0.00,32,Wunderground v.1.15,2013-01-15 16:52:00,
2013-01-15 08:57:00,32.3,30.8,30.68,SE,134,0.0,0.0,94,0.00,,,0.00,39,Wunderground v.1.15,2013-01-15 16:57:00,
2013-01-15 09:03:00,32.5,31.0,30.69,SE,134,0.0,0.0,94,0.00,,,0.00,37,Wunderground v.1.15,2013-01-15 17:03:00,
2013-01-15 09:08:00,32.6,31.1,30.69,SE,134,0.0,0.0,94,0.00,,,0.00,37,Wunderground v.1.15,2013-01-15 17:08:00,
2013-01-15 09:13:00,32.7,31.2,30.69,SE,134,0.0,0.0,94,0.00,,,0.00,54,Wunderground v.1.15,2013-01-15 17:13:00,
2013-01-15 09:18:00,32.8,31.3,30.69,SE,134,0.0,0.0,94,0.00,,,0.00,67,Wunderground v.1.15,2013-01-15 17:18:00,
2013-01-15 09:23:00,32.9,31.4,30.69,SE,134,0.0,0.0,94,0.00,,,0.00,70,Wunderground v.1.15,2013-01-15 17:23:00,
2013-01-15 09:29:00,33.2,31.7,30.69,SE,134,0.0,0.0,94,0.00,,,0.00,77,Wunderground v.1.15,2013-01-15 17:29:00,
2013-01-15 09:34:00,33.4,31.6,30.69,SE,134,0.0,0.0,93,0.00,,,0.00,79,Wunderground v.1.15,2013-01-15 17:34:00,
2013-01-15 09:39:00,33.6,32.1,30.69,SE,134,0.0,0.0,94,0.00,,,0.00,81,Wunderground v.1.15,2013-01-15 17:39:00,
2013-01-15 09:44:00,33.8,32.0,30.69,SE,134,0.0,0.0,93,0.00,,,0.00,86,Wunderground v.1.15,2013-01-15 17:44:00,
2013-01-15 09:49:00,33.9,32.1,30.69,SE,132,0.0,0.0,93,0.00,,,0.00,90,Wunderground v.1.15,2013-01-15 17:49:00,
2013-01-15 09:55:00,34.1,32.3,30.70,SE,132,0.0,0.0,93,0.00,,,0.00,95,Wunderground v.1.15,2013-01-15 17:55:00,
2013-01-15 10:01:00,34.4,32.6,30.70,SE,132,0.0,0.0,93,0.00,,,0.00,97,Wunderground v.1.15,2013-01-15 18:01:00,
2013-01-15 10:06:00,34.6,32.5,30.69,SE,132,0.0,0.0,92,0.00,,,0.00,104,Wunderground v.1.15,2013-01-15 18:06:00,
2013-01-15 10:11:00,34.8,32.4,30.70,SE,132,0.0,0.0,91,0.00,,,0.00,113,Wunderground v.1.15,2013-01-15 18:11:00,
2013-01-15 10:16:00,35.0,32.6,30.70,SE,132,0.0,0.0,91,0.00,,,0.00,114,Wunderground v.1.15,2013-01-15 18:16:00,
2013-01-15 10:22:00,35.2,32.6,30.70,SE,132,0.0,0.0,90,0.00,,,0.00,118,Wunderground v.1.15,2013-01-15 18:22:00,
2013-01-15 10:27:00,35.5,33.1,30.70,SE,132,0.0,0.0,91,0.00,,,0.00,121,Wunderground v.1.15,2013-01-15 18:27:00,
2013-01-15 10:32:00,35.7,33.1,30.71,SE,132,0.0,0.0,90,0.00,,,0.00,127,Wunderground v.1.15,2013-01-15 18:32:00,
2013-01-15 10:37:00,35.8,32.9,30.71,SE,132,0.0,0.0,89,0.00,,,0.00,128,Wunderground v.1.15,2013-01-15 18:37:00,
2013-01-15 10:42:00,35.9,33.0,30.71,SE,132,0.0,0.0,89,0.00,,,0.00,134,Wunderground v.1.15,2013-01-15 18:42:00,
2013-01-15 10:48:00,36.2,33.0,30.70,SE,132,0.0,0.0,88,0.00,,,0.00,141,Wunderground v.1.15,2013-01-15 18:48:00,
2013-01-15 10:54:00,36.5,33.3,30.70,SE,132,0.0,0.0,88,0.00,,,0.00,146,Wunderground v.1.15,2013-01-15 18:54:00,
2013-01-15 10:59:00,36.8,33.6,30.70,SE,132,0.0,0.0,88,0.00,,,0.00,141,Wunderground v.1.15,2013-01-15 18:59:00,
2013-01-15 11:04:00,37.0,33.5,30.70,SE,132,0.0,0.0,87,0.00,,,0.00,153,Wunderground v.1.15,2013-01-15 19:04:00,
2013-01-15 11:09:00,37.2,33.4,30.70,SE,132,0.0,0.0,86,0.00,,,0.00,167,Wunderground v.1.15,2013-01-15 19:09:00,
2013-01-15 11:15:00,37.5,33.7,30.70,SE,132,0.0,0.0,86,0.00,,,0.00,174,Wunderground v.1.15,2013-01-15 19:15:00,
2013-01-15 11:20:00,37.8,34.0,30.70,SE,132,0.0,0.0,86,0.00,,,0.00,178,Wunderground v.1.15,2013-01-15 19:20:00,
2013-01-15 11:26:00,38.0,33.9,30.70,SE,132,0.0,0.0,85,0.00,,,0.00,192,Wunderground v.1.15,2013-01-15 19:26:00,
2013-01-15 11:31:00,38.1,34.0,30.70,SE,132,0.0,0.0,85,0.00,,,0.00,209,Wunderground v.1.15,2013-01-15 19:31:00,
2013-01-15 11:36:00,38.2,34.1,30.70,SE,132,0.0,0.0,85,0.00,,,0.00,209,Wunderground v.1.15,2013-01-15 19:36:00,
2013-01-15 11:42:00,38.6,34.2,30.70,SE,132,0.0,0.0,84,0.00,,,0.00,204,Wunderground v.1.15,2013-01-15 19:42:00,
2013-01-15 11:48:00,38.8,34.4,30.69,SE,132,0.0,0.0,84,0.00,,,0.00,213,Wunderground v.1.15,2013-01-15 19:48:00,
2013-01-15 11:53:00,38.8,34.4,30.69,SE,132,0.0,0.0,84,0.00,,,0.00,265,Wunderground v.1.15,2013-01-15 19:53:00,
2013-01-15 11:58:00,38.9,34.5,30.69,SE,132,0.0,2.0,84,0.00,,,0.00,214,Wunderground v.1.15,2013-01-15 19:58:00,
2013-01-15 12:03:00,38.7,34.3,30.69,SE,132,1.0,2.0,84,0.00,,,0.00,204,Wunderground v.1.15,2013-01-15 20:03:00,
2013-01-15 12:09:00,38.6,33.9,30.69,SE,132,0.0,2.0,83,0.00,,,0.00,197,Wunderground v.1.15,2013-01-15 20:09:00,
2013-01-15 12:14:00,38.6,34.2,30.69,SE,132,0.0,0.0,84,0.00,,,0.00,199,Wunderground v.1.15,2013-01-15 20:14:00,
2013-01-15 12:20:00,38.7,34.3,30.69,SE,132,0.0,0.0,84,0.00,,,0.00,211,Wunderground v.1.15,2013-01-15 20:20:00,
2013-01-15 12:26:00,38.8,34.1,30.69,SE,132,0.0,0.0,83,0.00,,,0.00,225,Wunderground v.1.15,2013-01-15 20:26:00,
2013-01-15 12:31:00,38.9,34.5,30.69,SE,132,0.0,0.0,84,0.00,,,0.00,250,Wunderground v.1.15,2013-01-15 20:31:00,
2013-01-15 12:36:00,39.2,34.8,30.68,SE,132,0.0,0.0,84,0.00,,,0.00,243,Wunderground v.1.15,2013-01-15 20:36:00,
2013-01-15 12:41:00,39.4,35.0,30.68,SE,132,0.0,2.0,84,0.00,,,0.00,230,Wunderground v.1.15,2013-01-15 20:41:00,
2013-01-15 12:47:00,39.3,34.6,30.68,SE,132,1.0,2.0,83,0.00,,,0.00,214,Wunderground v.1.15,2013-01-15 20:47:00,
2013-01-15 12:52:00,39.1,33.8,30.68,South,186,1.0,1.0,81,0.00,,,0.00,213,Wunderground v.1.15,2013-01-15 20:52:00,
2013-01-15 12:57:00,39.2,34.2,30.68,North,355,1.0,4.0,82,0.00,,,0.00,209,Wunderground v.1.15,2013-01-15 20:57:00,
2013-01-15 13:02:00,39.4,35.0,30.68,North,360,1.0,2.0,84,0.00,,,0.00,223,Wunderground v.1.15,2013-01-15 21:02:00,
2013-01-15 13:08:00,39.7,35.0,30.68,North,360,1.0,3.0,83,0.00,,,0.00,211,Wunderground v.1.15,2013-01-15 21:08:00,
2013-01-15 13:13:00,39.8,35.4,30.68,North,5,2.0,3.0,84,0.00,,,0.00,216,Wunderground v.1.15,2013-01-15 21:13:00,
2013-01-15 13:18:00,40.0,35.3,30.68,NNW,339,2.0,3.0,83,0.00,,,0.00,272,Wunderground v.1.15,2013-01-15 21:18:00,
2013-01-15 13:24:00,39.8,34.8,30.68,NW,322,1.0,3.0,82,0.00,,,0.00,327,Wunderground v.1.15,2013-01-15 21:24:00,
2013-01-15 13:29:00,40.0,35.3,30.68,NW,323,1.0,3.0,83,0.00,,,0.00,294,Wunderground v.1.15,2013-01-15 21:29:00,
2013-01-15 13:35:00,40.1,35.0,30.68,West,276,1.0,3.0,82,0.00,,,0.00,394,Wunderground v.1.15,2013-01-15 21:35:00,
2013-01-15 13:41:00,40.3,34.6,30.68,NNW,327,2.0,3.0,80,0.00,,,0.00,257,Wunderground v.1.15,2013-01-15 21:41:00,
2013-01-15 13:46:00,40.2,34.5,30.68,North,350,2.0,4.0,80,0.00,,,0.00,283,Wunderground v.1.15,2013-01-15 21:46:00,
2013-01-15 13:51:00,40.5,35.1,30.68,NNW,333,2.0,4.0,81,0.00,,,0.00,246,Wunderground v.1.15,2013-01-15 21:51:00,
2013-01-15 13:57:00,40.6,34.6,30.68,NW,326,3.0,4.0,79,0.00,,,0.00,343,Wunderground v.1.15,2013-01-15 21:57:00,
2013-01-15 14:03:00,41.1,36.6,30.68,NW,325,3.0,3.0,84,0.00,,,0.00,461,Wunderground v.1.15,2013-01-15 22:03:00,
2013-01-15 14:08:00,41.8,36.1,30.68,North,349,2.0,3.0,80,0.00,,,0.00,452,Wunderground v.1.15,2013-01-15 22:08:00,
2013-01-15 14:13:00,42.2,36.5,30.68,West,278,1.0,5.0,80,0.00,,,0.00,427,Wunderground v.1.15,2013-01-15 22:13:00,
2013-01-15 14:18:00,42.6,36.2,30.68,North,355,1.0,5.0,78,0.00,,,0.00,420,Wunderground v.1.15,2013-01-15 22:18:00,
2013-01-15 14:23:00,42.7,35.7,30.68,NNW,327,2.0,3.0,76,0.00,,,0.00,388,Wunderground v.1.15,2013-01-15 22:23:00,
2013-01-15 14:28:00,42.9,35.5,30.68,WNW,288,1.0,3.0,75,0.00,,,0.00,385,Wunderground v.1.15,2013-01-15 22:28:00,
2013-01-15 14:34:00,42.7,35.0,30.68,NW,309,1.0,3.0,74,0.00,,,0.00,355,Wunderground v.1.15,2013-01-15 22:34:00,
2013-01-15 14:39:00,42.5,34.5,30.68,NW,311,2.0,4.0,73,0.00,,,0.00,339,Wunderground v.1.15,2013-01-15 22:39:00,
2013-01-15 14:44:00,42.4,34.4,30.69,NW,312,1.0,3.0,73,0.00,,,0.00,329,Wunderground v.1.15,2013-01-15 22:44:00,
2013-01-15 14:49:00,42.6,34.5,30.69,NW,321,1.0,3.0,73,0.00,,,0.00,308,Wunderground v.1.15,2013-01-15 22:49:00,
2013-01-15 14:54:00,42.5,34.8,30.69,West,281,1.0,6.0,74,0.00,,,0.00,288,Wunderground v.1.15,2013-01-15 22:54:00,
2013-01-15 14:59:00,42.3,34.3,30.69,West,280,1.0,6.0,73,0.00,,,0.00,269,Wunderground v.1.15,2013-01-15 22:59:00,
2013-01-15 15:04:00,42.3,34.3,30.69,NW,321,2.0,5.0,73,0.00,,,0.00,255,Wunderground v.1.15,2013-01-15 23:04:00,
2013-01-15 15:10:00,42.2,33.8,30.69,NW,309,2.0,2.0,72,0.00,,,0.00,174,Wunderground v.1.15,2013-01-15 23:10:00,
2013-01-15 15:15:00,42.0,34.3,30.69,NW,309,2.0,2.0,74,0.00,,,0.00,146,Wunderground v.1.15,2013-01-15 23:15:00,
2013-01-15 15:21:00,41.9,33.9,30.69,WNW,292,1.0,2.0,73,0.00,,,0.00,181,Wunderground v.1.15,2013-01-15 23:21:00,
2013-01-15 15:26:00,42.0,33.6,30.69,NW,307,2.0,2.0,72,0.00,,,0.00,165,Wunderground v.1.15,2013-01-15 23:26:00,
2013-01-15 15:31:00,41.8,33.4,30.69,NW,309,2.0,3.0,72,0.00,,,0.00,146,Wunderground v.1.15,2013-01-15 23:31:00,
2013-01-15 15:36:00,41.8,33.8,30.69,NW,304,1.0,3.0,73,0.00,,,0.00,132,Wunderground v.1.15,2013-01-15 23:36:00,
2013-01-15 15:41:00,41.7,34.0,30.68,NW,321,1.0,1.0,74,0.00,,,0.00,114,Wunderground v.1.15,2013-01-15 23:41:00,
2013-01-15 15:46:00,41.5,34.2,30.69,NW,323,1.0,1.0,75,0.00,,,0.00,105,Wunderground v.1.15,2013-01-15 23:46:00,
2013-01-15 15:51:00,41.3,34.0,30.69,NW,323,1.0,1.0,75,0.00,,,0.00,90,Wunderground v.1.15,2013-01-15 23:51:00,
2013-01-15 15:57:00,41.1,34.1,30.68,NW,323,1.0,1.0,76,0.00,,,0.00,69,Wunderground v.1.15,2013-01-15 23:57:00,
2013-01-15 16:02:00,41.0,33.7,30.68,NW,323,0.0,0.0,75,0.00,,,0.00,56,Wunderground v.1.15,2013-01-16 00:02:00,
2013-01-15 16:08:00,40.9,33.9,30.68,NW,323,0.0,0.0,76,0.00,,,0.00,40,Wunderground v.1.15,2013-01-16 00:08:00,
2013-01-15 16:14:00,40.5,33.5,30.69,NW,323,0.0,0.0,76,0.00,,,0.00,25,Wunderground v.1.15,2013-01-16 00:14:00,
2013-01-15 16:19:00,40.2,33.6,30.69,NW,323,0.0,0.0,77,0.00,,,0.00,21,Wunderground v.1.15,2013-01-16 00:19:00,
2013-01-15 16:24:00,40.0,33.4,30.69,NW,323,0.0,0.0,77,0.00,,,0.00,14,Wunderground v.1.15,2013-01-16 00:24:00,
2013-01-15 16:29:00,39.8,33.5,30.69,NW,323,0.0,0.0,78,0.00,,,0.00,12,Wunderground v.1.15,2013-01-16 00:29:00,
2013-01-15 16:35:00,39.3,33.3,30.69,NW,323,0.0,0.0,79,0.00,,,0.00,9,Wunderground v.1.15,2013-01-16 00:35:00,
2013-01-15 16:40:00,38.6,33.0,30.69,NW,323,0.0,0.0,80,0.00,,,0.00,7,Wunderground v.1.15,2013-01-16 00:40:00,
2013-01-15 16:46:00,37.4,32.4,30.69,NW,323,0.0,0.0,82,0.00,,,0.00,5,Wunderground v.1.15,2013-01-16 00:46:00,
2013-01-15 16:51:00,36.5,31.8,30.69,NW,323,0.0,1.0,83,0.00,,,0.00,0,Wunderground v.1.15,2013-01-16 00:51:00,
2013-01-15 16:56:00,35.5,31.4,30.68,NW,323,1.0,1.0,85,0.00,,,0.00,0,Wunderground v.1.15,2013-01-16 00:56:00,
2013-01-15 17:02:00,35.0,31.5,30.69,NW,323,0.0,0.0,87,0.00,,,0.00,0,Wunderground v.1.15,2013-01-16 01:02:00,
2013-01-15 17:07:00,34.6,31.1,30.69,NW,324,0.0,0.0,87,0.00,,,0.00,0,Wunderground v.1.15,2013-01-16 01:07:00,
2013-01-15 17:13:00,34.2,31.0,30.68,NW,324,0.0,0.0,88,0.00,,,0.00,0,Wunderground v.1.15,2013-01-16 01:13:00,
2013-01-15 17:18:00,34.0,31.1,30.68,NNE,24,0.0,0.0,89,0.00,,,0.00,0,Wunderground v.1.15,2013-01-16 01:18:00,
2013-01-15 17:24:00,33.7,30.8,30.69,NNE,24,0.0,0.0,89,0.00,,,0.00,0,Wunderground v.1.15,2013-01-16 01:24:00,
2013-01-15 17:29:00,33.3,30.4,30.69,ENE,62,0.0,2.0,89,0.00,,,0.00,0,Wunderground v.1.15,2013-01-16 01:29:00,
2013-01-15 17:34:00,32.7,30.1,30.69,ENE,62,1.0,2.0,90,0.00,,,0.00,0,Wunderground v.1.15,2013-01-16 01:34:00,
2013-01-15 17:40:00,32.5,30.2,30.69,ENE,62,1.0,1.0,91,0.00,,,0.00,0,Wunderground v.1.15,2013-01-16 01:40:00,
2013-01-15 17:45:00,32.4,30.1,30.69,ENE,62,1.0,2.0,91,0.00,,,0.00,0,Wunderground v.1.15,2013-01-16 01:45:00,
2013-01-15 17:50:00,32.0,29.7,30.69,ENE,62,1.0,1.0,91,0.00,,,0.00,0,Wunderground v.1.15,2013-01-16 01:50:00,
2013-01-15 17:55:00,31.7,29.4,30.68,ENE,62,2.0,2.0,91,0.00,,,0.00,0,Wunderground v.1.15,2013-01-16 01:55:00,
2013-01-15 18:00:00,31.5,29.4,30.68,ENE,62,2.0,2.0,92,0.00,,,0.00,0,Wunderground v.1.15,2013-01-16 02:00:00,
2013-01-15 18:05:00,31.3,29.2,30.68,ENE,62,2.0,3.0,92,0.00,,,0.00,0,Wunderground v.1.15,2013-01-16 02:05:00,
2013-01-15 18:10:00,31.2,29.1,30.68,ENE,62,2.0,2.0,92,0.00,,,0.00,0,Wunderground v.1.15,2013-01-16 02:10:00,
2013-01-15 18:15:00,31.0,28.9,30.68,ENE,62,2.0,3.0,92,0.00,,,0.00,0,Wunderground v.1.15,2013-01-16 02:15:00,
2013-01-15 18:20:00,31.0,28.9,30.68,ENE,62,2.0,2.0,92,0.00,,,0.00,0,Wunderground v.1.15,2013-01-16 02:20:00,
2013-01-15 18:25:00,30.9,28.9,30.69,ENE,62,2.0,2.0,92,0.00,,,0.00,0,Wunderground v.1.15,2013-01-16 02:25:00,
2013-01-15 18:30:00,30.7,28.7,30.68,SE,136,2.0,2.0,92,0.00,,,0.00,0,Wunderground v.1.15,2013-01-16 02:30:00,
2013-01-15 18:35:00,30.5,28.7,30.69,SE,146,3.0,5.0,93,0.00,,,0.00,0,Wunderground v.1.15,2013-01-16 02:35:00,
2013-01-15 18:40:00,30.6,28.8,30.69,SE,146,4.0,5.0,93,0.00,,,0.00,0,Wunderground v.1.15,2013-01-16 02:40:00,
2013-01-15 18:45:00,30.6,28.8,30.68,SE,146,4.0,5.0,93,0.00,,,0.00,0,Wunderground v.1.15,2013-01-16 02:45:00,
2013-01-15 18:50:00,30.7,28.9,30.68,SE,146,3.0,4.0,93,0.00,,,0.00,0,Wunderground v.1.15,2013-01-16 02:50:00,
2013-01-15 18:55:00,30.7,29.2,30.69,SE,146,3.0,5.0,94,0.00,,,0.00,0,Wunderground v.1.15,2013-01-16 02:55:00,
2013-01-15 19:00:00,30.7,28.9,30.69,SE,146,4.0,4.0,93,0.00,,,0.00,0,Wunderground v.1.15,2013-01-16 03:00:00,
2013-01-15 19:05:00,30.6,29.1,30.69,SE,146,4.0,4.0,94,0.00,,,0.00,0,Wunderground v.1.15,2013-01-16 03:05:00,
2013-01-15 19:10:00,30.6,29.1,30.68,SE,146,4.0,4.0,94,0.00,,,0.00,0,Wunderground v.1.15,2013-01-16 03:10:00,
2013-01-15 19:16:00,30.5,29.0,30.68,SE,146,4.0,5.0,94,0.00,,,0.00,0,Wunderground v.1.15,2013-01-16 03:16:00,
2013-01-15 19:21:00,30.4,28.9,30.68,SE,146,4.0,4.0,94,0.00,,,0.00,0,Wunderground v.1.15,2013-01-16 03:21:00,
2013-01-15 19:26:00,30.3,28.8,30.69,SE,146,3.0,4.0,94,0.00,,,0.00,0,Wunderground v.1.15,2013-01-16 03:26:00,
2013-01-15 19:31:00,30.2,28.7,30.69,SE,146,3.0,4.0,94,0.00,,,0.00,0,Wunderground v.1.15,2013-01-16 03:31:00,
2013-01-15 19:36:00,30.2,28.7,30.69,SE,146,4.0,4.0,94,0.00,,,0.00,0,Wunderground v.1.15,2013-01-16 03:36:00,
2013-01-15 19:42:00,30.1,28.6,30.69,SE,146,3.0,4.0,94,0.00,,,0.00,0,Wunderground v.1.15,2013-01-16 03:42:00,
2013-01-15 19:47:00,30.1,28.8,30.69,SE,146,2.0,4.0,95,0.00,,,0.00,0,Wunderground v.1.15,2013-01-16 03:47:00,
2013-01-15 19:52:00,30.1,28.8,30.69,SE,146,2.0,2.0,95,0.00,,,0.00,0,Wunderground v.1.15,2013-01-16 03:52:00,
2013-01-15 19:57:00,30.1,28.8,30.69,SE,146,2.0,2.0,95,0.00,,,0.00,0,Wunderground v.1.15,2013-01-16 03:57:00,
2013-01-15 20:02:00,30.1,28.8,30.69,SE,146,3.0,4.0,95,0.00,,,0.00,0,Wunderground v.1.15,2013-01-16 04:02:00,
2013-01-15 20:07:00,30.3,29.0,30.69,SE,139,3.0,4.0,95,0.00,,,0.00,0,Wunderground v.1.15,2013-01-16 04:07:00,
2013-01-15 20:13:00,30.4,29.1,30.69,SE,135,3.0,4.0,95,0.00,,,0.00,0,Wunderground v.1.15,2013-01-16 04:13:00,
2013-01-15 20:18:00,30.3,29.0,30.68,SE,135,3.0,4.0,95,0.00,,,0.00,0,Wunderground v.1.15,2013-01-16 04:18:00,
2013-01-15 20:23:00,30.1,28.8,30.68,SE,138,4.0,4.0,95,0.00,,,0.00,0,Wunderground v.1.15,2013-01-16 04:23:00,
2013-01-15 20:28:00,30.4,29.1,30.69,SE,134,4.0,5.0,95,0.00,,,0.00,0,Wunderground v.1.15,2013-01-16 04:28:00,
2013-01-15 20:33:00,30.9,29.6,30.68,SE,130,4.0,6.0,95,0.00,,,0.00,0,Wunderground v.1.15,2013-01-16 04:33:00,
2013-01-15 20:39:00,31.1,29.8,30.68,SE,134,4.0,6.0,95,0.00,,,0.00,0,Wunderground v.1.15,2013-01-16 04:39:00,
2013-01-15 20:44:00,31.2,29.9,30.68,SE,137,3.0,6.0,95,0.00,,,0.00,0,Wunderground v.1.15,2013-01-16 04:44:00,
2013-01-15 20:49:00,31.1,29.6,30.68,SE,135,3.0,6.0,94,0.00,,,0.00,0,Wunderground v.1.15,2013-01-16 04:49:00,
2013-01-15 20:54:00,30.8,29.3,30.68,SE,135,2.0,4.0,94,0.00,,,0.00,0,Wunderground v.1.15,2013-01-16 04:54:00,
2013-01-15 21:01:00,30.3,28.8,30.68,SE,135,2.0,2.0,94,0.00,,,0.00,0,Wunderground v.1.15,2013-01-16 05:01:00,
2013-01-15 21:04:00,30.1,28.6,30.68,SE,135,1.0,2.0,94,0.00,,,0.00,0,Wunderground v.1.15,2013-01-16 05:04:00,
2013-01-15 21:05:00,30.1,28.6,30.68,SE,135,1.0,2.0,94,0.00,,,0.00,0,Wunderground v.1.15,2013-01-16 05:05:00,
2013-01-15 21:09:00,29.9,28.4,30.68,SE,135,1.0,4.0,94,0.00,,,0.00,0,Wunderground v.1.15,2013-01-16 05:09:00,
2013-01-15 21:14:00,29.8,28.3,30.68,SE,135,1.0,2.0,94,0.00,,,0.00,0,Wunderground v.1.15,2013-01-16 05:14:00,
2013-01-15 21:19:00,29.6,28.1,30.68,SE,135,1.0,2.0,94,0.00,,,0.00,0,Wunderground v.1.15,2013-01-16 05:19:00,
2013-01-15 21:24:00,29.4,27.9,30.68,SE,135,1.0,2.0,94,0.00,,,0.00,0,Wunderground v.1.15,2013-01-16 05:24:00,
2013-01-15 21:29:00,29.3,28.0,30.68,SE,135,1.0,2.0,95,0.00,,,0.00,0,Wunderground v.1.15,2013-01-16 05:29:00,
2013-01-15 21:34:00,29.3,28.0,30.68,SE,135,1.0,1.0,95,0.00,,,0.00,0,Wunderground v.1.15,2013-01-16 05:34:00,
2013-01-15 21:39:00,29.3,28.0,30.68,SE,135,0.0,1.0,95,0.00,,,0.00,0,Wunderground v.1.15,2013-01-16 05:39:00,
2013-01-15 21:44:00,29.4,28.1,30.68,SE,135,1.0,2.0,95,0.00,,,0.00,0,Wunderground v.1.15,2013-01-16 05:44:00,
2013-01-15 21:50:00,29.5,28.2,30.68,SE,135,1.0,1.0,95,0.00,,,0.00,0,Wunderground v.1.15,2013-01-16 05:50:00,
2013-01-15 21:55:00,29.7,28.4,30.68,SE,134,1.0,2.0,95,0.00,,,0.00,0,Wunderground v.1.15,2013-01-16 05:55:00,
2013-01-15 22:00:00,29.7,28.4,30.67,SE,134,1.0,1.0,95,0.00,,,0.00,0,Wunderground v.1.15,2013-01-16 06:00:00,
2013-01-15 22:06:00,29.5,28.0,30.68,SE,134,1.0,1.0,94,0.00,,,0.00,0,Wunderground v.1.15,2013-01-16 06:06:00,
2013-01-15 22:11:00,29.2,27.7,30.68,SE,134,0.0,2.0,94,0.00,,,0.00,0,Wunderground v.1.15,2013-01-16 06:11:00,
2013-01-15 22:17:00,29.0,27.7,30.68,SE,136,0.0,2.0,95,0.00,,,0.00,0,Wunderground v.1.15,2013-01-16 06:17:00,
2013-01-15 22:23:00,29.2,27.9,30.68,SE,136,0.0,5.0,95,0.00,,,0.00,0,Wunderground v.1.15,2013-01-16 06:23:00,
2013-01-15 22:28:00,29.5,28.2,30.68,SE,136,0.0,5.0,95,0.00,,,0.00,0,Wunderground v.1.15,2013-01-16 06:28:00,
2013-01-15 22:33:00,29.5,28.2,30.68,SE,136,0.0,0.0,95,0.00,,,0.00,0,Wunderground v.1.15,2013-01-16 06:33:00,
2013-01-15 22:39:00,29.6,28.3,30.68,SE,136,0.0,0.0,95,0.00,,,0.00,0,Wunderground v.1.15,2013-01-16 06:39:00,
2013-01-15 22:44:00,29.6,28.3,30.68,SE,136,0.0,2.0,95,0.00,,,0.00,0,Wunderground v.1.15,2013-01-16 06:44:00,
2013-01-15 22:49:00,29.4,27.9,30.68,SE,136,0.0,2.0,94,0.00,,,0.00,0,Wunderground v.1.15,2013-01-16 06:49:00,
2013-01-15 22:54:00,29.6,28.3,30.68,SE,136,0.0,1.0,95,0.00,,,0.00,0,Wunderground v.1.15,2013-01-16 06:54:00,
2013-01-15 23:00:00,29.6,28.3,30.68,SE,136,0.0,0.0,95,0.00,,,0.00,0,Wunderground v.1.15,2013-01-16 07:00:00,
2013-01-15 23:05:00,29.7,28.4,30.68,SE,136,0.0,2.0,95,0.00,,,0.00,0,Wunderground v.1.15,2013-01-16 07:05:00,
2013-01-15 23:10:00,29.6,28.1,30.68,SE,136,0.0,0.0,94,0.00,,,0.00,0,Wunderground v.1.15,2013-01-16 07:10:00,
2013-01-15 23:15:00,29.4,27.9,30.68,SE,136,0.0,0.0,94,0.00,,,0.00,0,Wunderground v.1.15,2013-01-16 07:15:00,
2013-01-15 23:20:00,29.3,27.8,30.68,SE,136,0.0,0.0,94,0.00,,,0.00,0,Wunderground v.1.15,2013-01-16 07:20:00,
2013-01-15 23:25:00,29.0,27.5,30.68,SE,136,0.0,0.0,94,0.00,,,0.00,0,Wunderground v.1.15,2013-01-16 07:25:00,
2013-01-15 23:30:00,28.8,27.3,30.68,SE,136,0.0,0.0,94,0.00,,,0.00,0,Wunderground v.1.15,2013-01-16 07:30:00,
2013-01-15 23:36:00,28.4,26.9,30.68,SE,136,0.0,0.0,94,0.00,,,0.00,0,Wunderground v.1.15,2013-01-16 07:36:00,
2013-01-15 23:42:00,28.1,26.6,30.68,SE,136,0.0,0.0,94,0.00,,,0.00,0,Wunderground v.1.15,2013-01-16 07:42:00,
2013-01-15 23:47:00,28.0,26.8,30.68,SE,136,0.0,2.0,95,0.00,,,0.00,0,Wunderground v.1.15,2013-01-16 07:47:00,
2013-01-15 23:52:00,28.0,26.8,30.68,SE,136,0.0,0.0,95,0.00,,,0.00,0,Wunderground v.1.15,2013-01-16 07:52:00,
2013-01-15 23:57:00,28.1,26.9,30.68,SE,136,0.0,2.0,95,0.00,,,0.00,0,Wunderground v.1.15,2013-01-16 07:57:00,